Time,TemperatureF,DewpointF,PressureIn,WindDirection,WindDirectionDegrees,WindSpeedMPH,WindSpeedGustMPH,Humidity,HourlyPrecipIn,Conditions,Clouds,dailyrainin,SoftwareType,DateUTC
2013-04-14 00:00:00,45.0,35.8,29.93,West,260,1.9,2.1,70,0.00,OVC,,0.06,WeatherDisplay:10.37,2013-04-14 04:00:00,
2013-04-14 00:01:00,45.0,35.8,29.93,West,260,1.9,2.1,70,0.00,OVC,,0.06,WeatherDisplay:10.37,2013-04-14 04:01:00,
2013-04-14 00:03:00,45.1,35.6,29.93,West,263,1.5,1.5,69,0.00,RA,,0.00,WeatherDisplay:10.37,2013-04-14 04:03:00,
2013-04-14 00:08:00,45.1,35.9,29.93,WNW,292,1.2,0.0,70,0.00,RA,,0.00,WeatherDisplay:10.37,2013-04-14 04:08:00,
2013-04-14 00:13:00,45.1,35.9,29.93,WNW,282,3.5,3.5,70,0.00,OVC,,0.00,WeatherDisplay:10.37,2013-04-14 04:13:00,
2013-04-14 00:18:00,45.1,35.9,29.93,WSW,250,0.0,0.0,70,0.00,OVC,,0.00,WeatherDisplay:10.37,2013-04-14 04:18:00,
2013-04-14 00:23:00,44.7,35.6,29.94,WSW,250,0.0,0.0,70,0.00,OVC,,0.00,WeatherDisplay:10.37,2013-04-14 04:23:00,
2013-04-14 00:27:00,44.6,35.5,29.94,WSW,246,3.5,3.5,70,0.00,OVC,,0.00,WeatherDisplay:10.37,2013-04-14 04:27:00,
2013-04-14 00:32:00,44.6,36.2,29.94,WSW,251,3.5,3.5,72,0.00,OVC,,0.00,WeatherDisplay:10.37,2013-04-14 04:32:00,
2013-04-14 00:37:00,44.5,35.7,29.95,West,263,5.8,5.8,71,0.00,OVC,,0.00,WeatherDisplay:10.37,2013-04-14 04:37:00,
2013-04-14 00:42:00,44.6,35.8,29.95,SW,216,5.8,5.8,71,0.00,OVC,,0.00,WeatherDisplay:10.37,2013-04-14 04:42:00,
2013-04-14 00:47:00,44.8,35.6,29.95,WNW,287,4.0,4.0,70,0.00,OVC,,0.00,WeatherDisplay:10.37,2013-04-14 04:47:00,
2013-04-14 00:52:00,45.0,35.5,29.95,WSW,258,4.6,4.6,69,0.00,OVC,,0.00,WeatherDisplay:10.37,2013-04-14 04:52:00,
2013-04-14 00:57:00,45.3,35.4,29.95,WSW,246,4.6,4.6,68,0.00,OVC,,0.00,WeatherDisplay:10.37,2013-04-14 04:57:00,
2013-04-14 01:03:00,45.6,35.7,29.95,WSW,253,6.0,6.0,68,0.00,OVC,,0.00,WeatherDisplay:10.37,2013-04-14 05:03:00,
2013-04-14 01:08:00,45.6,36.0,29.95,West,264,5.8,5.8,69,0.00,OVC,,0.00,WeatherDisplay:10.37,2013-04-14 05:08:00,
2013-04-14 01:13:00,45.5,35.6,29.95,WSW,254,9.2,9.2,68,0.00,OVC,,0.00,WeatherDisplay:10.37,2013-04-14 05:13:00,
2013-04-14 01:18:00,45.9,35.2,29.95,SW,227,5.8,5.8,66,0.00,OVC,,0.00,WeatherDisplay:10.37,2013-04-14 05:18:00,
2013-04-14 01:23:00,46.1,36.2,29.95,WSW,241,5.8,5.8,68,0.00,OVC,,0.00,WeatherDisplay:10.37,2013-04-14 05:23:00,
2013-04-14 01:28:00,46.2,36.3,29.95,West,265,4.6,4.6,68,0.00,OVC,,0.00,WeatherDisplay:10.37,2013-04-14 05:28:00,
2013-04-14 01:33:00,46.3,35.6,29.95,WSW,256,2.3,2.3,66,0.00,OVC,,0.00,WeatherDisplay:10.37,2013-04-14 05:33:00,
2013-04-14 01:38:00,46.1,35.4,29.95,WSW,254,4.7,4.7,66,0.00,OVC,,0.00,WeatherDisplay:10.37,2013-04-14 05:38:00,
2013-04-14 01:43:00,46.2,35.5,29.95,West,268,1.2,1.5,66,0.00,OVC,,0.00,WeatherDisplay:10.37,2013-04-14 05:43:00,
2013-04-14 01:48:00,46.2,35.5,29.95,WNW,288,5.8,5.8,66,0.00,OVC,,0.00,WeatherDisplay:10.37,2013-04-14 05:48:00,
2013-04-14 01:53:00,46.1,35.8,29.95,SW,216,3.5,0.0,67,0.00,OVC,,0.00,WeatherDisplay:10.37,2013-04-14 05:53:00,
2013-04-14 01:58:00,46.1,35.0,29.95,NW,305,8.1,8.1,65,0.00,OVC,,0.00,WeatherDisplay:10.37,2013-04-14 05:58:00,
2013-04-14 02:03:00,46.2,34.7,29.95,WSW,258,6.9,6.9,64,0.00,OVC,,0.00,WeatherDisplay:10.37,2013-04-14 06:03:00,
2013-04-14 02:08:00,46.3,35.6,29.95,West,277,4.6,4.6,66,0.00,OVC,,0.00,WeatherDisplay:10.37,2013-04-14 06:08:00,
2013-04-14 02:13:00,46.3,35.6,29.95,SW,236,6.9,6.9,66,0.00,OVC,,0.00,WeatherDisplay:10.37,2013-04-14 06:13:00,
2013-04-14 02:18:00,46.4,35.7,29.95,West,267,5.8,5.8,66,0.00,OVC,,0.00,WeatherDisplay:10.37,2013-04-14 06:18:00,
2013-04-14 02:23:00,46.5,35.4,29.95,West,268,4.9,4.9,65,0.00,OVC,,0.00,WeatherDisplay:10.37,2013-04-14 06:23:00,
2013-04-14 02:28:00,46.5,35.0,29.95,WSW,256,8.1,8.1,64,0.00,OVC,,0.00,WeatherDisplay:10.37,2013-04-14 06:28:00,
2013-04-14 02:33:00,46.6,35.1,29.95,WSW,248,6.9,6.9,64,0.00,OVC,,0.00,WeatherDisplay:10.37,2013-04-14 06:33:00,
2013-04-14 02:38:00,46.6,35.5,29.94,West,277,4.6,4.6,65,0.00,OVC,,0.00,WeatherDisplay:10.37,2013-04-14 06:38:00,
2013-04-14 02:43:00,46.6,35.1,29.94,WNW,284,9.2,9.2,64,0.00,OVC,,0.00,WeatherDisplay:10.37,2013-04-14 06:43:00,
2013-04-14 02:48:00,46.7,34.4,29.94,WSW,250,10.4,10.4,62,0.00,OVC,,0.00,WeatherDisplay:10.37,2013-04-14 06:48:00,
2013-04-14 02:53:00,46.6,34.7,29.94,WSW,251,5.8,5.8,63,0.00,OVC,,0.00,WeatherDisplay:10.37,2013-04-14 06:53:00,
2013-04-14 02:58:00,46.6,34.7,29.94,West,270,9.9,9.9,63,0.00,OVC,,0.00,WeatherDisplay:10.37,2013-04-14 06:58:00,
2013-04-14 03:03:00,46.8,34.9,29.94,WSW,248,6.9,6.9,63,0.00,OVC,,0.00,WeatherDisplay:10.37,2013-04-14 07:03:00,
2013-04-14 03:08:00,46.7,34.8,29.94,WSW,254,11.5,11.5,63,0.00,OVC,,0.00,WeatherDisplay:10.37,2013-04-14 07:08:00,
2013-04-14 03:13:00,46.7,35.2,29.94,West,264,5.8,5.8,64,0.00,OVC,,0.00,WeatherDisplay:10.37,2013-04-14 07:13:00,
2013-04-14 03:18:00,46.6,34.7,29.94,West,274,5.8,5.8,63,0.00,OVC,,0.00,WeatherDisplay:10.37,2013-04-14 07:18:00,
2013-04-14 03:23:00,46.7,34.8,29.94,West,270,8.1,8.1,63,0.00,OVC,,0.00,WeatherDisplay:10.37,2013-04-14 07:23:00,
2013-04-14 03:28:00,46.6,35.1,29.94,West,278,6.9,6.9,64,0.00,OVC,,0.00,WeatherDisplay:10.37,2013-04-14 07:28:00,
2013-04-14 03:33:00,46.6,35.1,29.94,West,278,8.1,8.1,64,0.00,OVC,,0.00,WeatherDisplay:10.37,2013-04-14 07:33:00,
2013-04-14 03:39:00,46.5,35.0,29.94,West,260,7.0,7.0,64,0.00,OVC,,0.00,WeatherDisplay:10.37,2013-04-14 07:39:00,
2013-04-14 03:44:00,46.4,34.9,29.93,West,265,5.8,5.8,64,0.00,OVC,,0.00,WeatherDisplay:10.37,2013-04-14 07:44:00,
2013-04-14 03:49:00,46.3,35.2,29.94,WNW,288,6.9,6.9,65,0.00,OVC,,0.00,WeatherDisplay:10.37,2013-04-14 07:49:00,
2013-04-14 03:54:00,46.1,35.0,29.94,WNW,284,5.8,5.8,65,0.00,OVC,,0.00,WeatherDisplay:10.37,2013-04-14 07:54:00,
2013-04-14 03:59:00,45.8,34.7,29.94,WSW,251,9.2,9.2,65,0.00,OVC,,0.00,WeatherDisplay:10.37,2013-04-14 07:59:00,
2013-04-14 04:04:00,45.7,34.6,29.95,West,278,8.1,8.1,65,0.00,OVC,,0.00,WeatherDisplay:10.37,2013-04-14 08:04:00,
2013-04-14 04:09:00,45.9,34.8,29.94,West,274,3.5,3.5,65,0.00,OVC,,0.00,WeatherDisplay:10.37,2013-04-14 08:09:00,
2013-04-14 04:14:00,45.7,35.0,29.94,West,267,6.9,6.9,66,0.00,OVC,,0.00,WeatherDisplay:10.37,2013-04-14 08:14:00,
2013-04-14 04:19:00,45.6,34.9,29.94,West,275,6.9,6.9,66,0.00,OVC,,0.00,WeatherDisplay:10.37,2013-04-14 08:19:00,
2013-04-14 04:24:00,45.4,35.1,29.94,WNW,285,4.6,0.0,67,0.00,OVC,,0.00,WeatherDisplay:10.37,2013-04-14 08:24:00,
2013-04-14 04:29:00,45.1,34.5,29.94,West,274,5.8,5.8,66,0.00,OVC,,0.00,WeatherDisplay:10.37,2013-04-14 08:29:00,
2013-04-14 04:34:00,44.9,35.0,29.95,West,260,5.8,5.8,68,0.00,OVC,,0.00,WeatherDisplay:10.37,2013-04-14 08:34:00,
2013-04-14 04:39:00,44.7,34.8,29.95,West,281,3.5,3.5,68,0.00,OVC,,0.00,WeatherDisplay:10.37,2013-04-14 08:39:00,
2013-04-14 04:44:00,44.6,34.7,29.95,West,275,4.6,4.6,68,0.00,OVC,,0.00,WeatherDisplay:10.37,2013-04-14 08:44:00,
2013-04-14 04:49:00,44.4,34.5,29.95,NW,305,5.8,5.8,68,0.00,OVC,,0.00,WeatherDisplay:10.37,2013-04-14 08:49:00,
2013-04-14 04:54:00,44.5,34.6,29.95,West,268,6.9,6.9,68,0.00,OVC,,0.00,WeatherDisplay:10.37,2013-04-14 08:54:00,
2013-04-14 04:59:00,44.5,35.0,29.96,WNW,282,6.9,6.9,69,0.00,OVC,,0.00,WeatherDisplay:10.37,2013-04-14 08:59:00,
2013-04-14 05:04:00,44.3,34.8,29.95,West,281,4.6,4.6,69,0.00,BKN,,0.00,WeatherDisplay:10.37,2013-04-14 09:04:00,
2013-04-14 05:09:00,44.0,34.5,29.95,WNW,282,5.8,5.8,69,0.00,BKN,,0.00,WeatherDisplay:10.37,2013-04-14 09:09:00,
2013-04-14 05:14:00,43.8,34.7,29.95,West,278,4.6,4.6,70,0.00,BKN,,0.00,WeatherDisplay:10.37,2013-04-14 09:14:00,
2013-04-14 05:19:00,43.6,34.5,29.95,West,278,2.3,2.3,70,0.00,BKN,,0.00,WeatherDisplay:10.37,2013-04-14 09:19:00,
2013-04-14 05:25:00,43.4,34.3,29.96,WNW,284,4.6,4.6,70,0.00,BKN,,0.00,WeatherDisplay:10.37,2013-04-14 09:25:00,
2013-04-14 05:30:00,43.2,34.1,29.96,WNW,287,5.8,5.8,70,0.00,BKN,,0.00,WeatherDisplay:10.37,2013-04-14 09:30:00,
2013-04-14 05:35:00,43.2,34.1,29.96,WNW,299,2.3,2.3,70,0.00,BKN,,0.00,WeatherDisplay:10.37,2013-04-14 09:35:00,
2013-04-14 05:40:00,43.2,33.8,29.96,WNW,294,0.0,0.0,69,0.00,BKN,,0.00,WeatherDisplay:10.37,2013-04-14 09:40:00,
2013-04-14 05:45:00,43.3,33.8,29.96,WNW,294,0.0,0.0,69,0.00,BKN,,0.00,WeatherDisplay:10.37,2013-04-14 09:45:00,
2013-04-14 05:50:00,43.0,33.6,29.96,WNW,294,0.0,0.0,69,0.00,BKN,,0.00,WeatherDisplay:10.37,2013-04-14 09:50:00,
2013-04-14 05:55:00,43.0,33.9,29.96,WNW,294,0.0,0.0,70,0.00,BKN,,0.00,WeatherDisplay:10.37,2013-04-14 09:55:00,
2013-04-14 06:00:00,42.8,33.7,29.97,WNW,294,0.0,0.0,70,0.00,BKN,,0.00,WeatherDisplay:10.37,2013-04-14 10:00:00,
2013-04-14 06:05:00,42.7,33.6,29.97,WNW,294,0.0,0.0,70,0.00,SCT,,0.00,WeatherDisplay:10.37,2013-04-14 10:05:00,
2013-04-14 06:10:00,42.3,33.6,29.97,WNW,294,0.0,0.0,71,0.00,SCT,,0.00,WeatherDisplay:10.37,2013-04-14 10:10:00,
2013-04-14 06:15:00,42.0,33.7,29.97,NNW,346,1.2,1.2,72,0.00,SCT,,0.00,WeatherDisplay:10.37,2013-04-14 10:15:00,
2013-04-14 06:20:00,41.9,33.9,29.98,NW,309,5.8,5.8,73,0.00,SCT,,0.00,WeatherDisplay:10.37,2013-04-14 10:20:00,
2013-04-14 06:25:00,41.8,34.2,29.98,North,6,0.0,0.0,74,0.00,SCT,,0.00,WeatherDisplay:10.37,2013-04-14 10:25:00,
2013-04-14 06:30:00,41.8,34.2,29.98,NW,322,0.0,0.0,74,0.00,SCT,,0.00,WeatherDisplay:10.37,2013-04-14 10:30:00,
2013-04-14 06:35:00,41.8,33.8,29.99,NNW,336,0.0,0.0,73,0.00,SCT,,0.00,WeatherDisplay:10.37,2013-04-14 10:35:00,
2013-04-14 06:40:00,41.9,34.3,29.99,North,359,0.0,0.0,74,0.00,SCT,,0.00,WeatherDisplay:10.37,2013-04-14 10:40:00,
2013-04-14 06:45:00,42.0,34.3,29.99,NNW,337,1.6,1.6,74,0.00,SCT,,0.00,WeatherDisplay:10.37,2013-04-14 10:45:00,
2013-04-14 06:50:00,42.1,34.4,29.99,NNW,336,3.5,3.5,74,0.00,SCT,,0.00,WeatherDisplay:10.37,2013-04-14 10:50:00,
2013-04-14 06:55:00,42.3,34.6,29.99,WNW,291,0.0,0.0,74,0.00,SCT,,0.00,WeatherDisplay:10.37,2013-04-14 10:55:00,
2013-04-14 07:00:00,42.3,34.6,29.99,WNW,289,1.2,0.0,74,0.00,SCT,,0.00,WeatherDisplay:10.37,2013-04-14 11:00:00,
2013-04-14 07:05:00,42.6,35.6,30.00,NW,311,2.3,0.0,76,0.00,FEW,,0.00,WeatherDisplay:10.37,2013-04-14 11:05:00,
2013-04-14 07:10:00,42.5,35.2,30.00,WNW,302,2.3,2.3,75,0.00,FEW,,0.00,WeatherDisplay:10.37,2013-04-14 11:10:00,
2013-04-14 07:16:00,42.7,35.0,30.00,NW,312,3.5,3.5,74,0.00,FEW,,0.00,WeatherDisplay:10.37,2013-04-14 11:16:00,
2013-04-14 07:21:00,42.6,35.3,29.99,WNW,291,0.0,1.6,75,0.00,FEW,,0.00,WeatherDisplay:10.37,2013-04-14 11:21:00,
2013-04-14 07:26:00,42.4,35.1,29.99,NW,319,3.5,3.5,75,0.00,FEW,,0.00,WeatherDisplay:10.37,2013-04-14 11:26:00,
2013-04-14 07:31:00,42.5,34.8,29.99,NW,319,0.0,0.0,74,0.00,FEW,,0.00,WeatherDisplay:10.37,2013-04-14 11:31:00,
2013-04-14 07:36:00,42.9,35.2,29.99,NW,309,4.6,4.6,74,0.00,FEW,,0.00,WeatherDisplay:10.37,2013-04-14 11:36:00,
2013-04-14 07:41:00,43.8,35.4,29.99,WNW,296,8.1,8.1,72,0.00,FEW,,0.00,WeatherDisplay:10.37,2013-04-14 11:41:00,
2013-04-14 07:46:00,44.2,35.1,29.99,NW,306,11.5,11.5,70,0.00,FEW,,0.00,WeatherDisplay:10.37,2013-04-14 11:46:00,
2013-04-14 07:51:00,44.8,35.3,29.99,West,270,5.8,5.8,69,0.00,FEW,,0.00,WeatherDisplay:10.37,2013-04-14 11:51:00,
2013-04-14 07:56:00,45.2,35.7,29.99,West,270,9.2,9.2,69,0.00,FEW,,0.00,WeatherDisplay:10.37,2013-04-14 11:56:00,
2013-04-14 08:01:00,45.5,35.6,29.99,NNW,328,8.1,8.1,68,0.00,FEW,,0.00,WeatherDisplay:10.37,2013-04-14 12:01:00,
2013-04-14 08:06:00,45.6,35.7,29.99,WNW,294,9.2,9.2,68,0.00,CLR,,0.00,WeatherDisplay:10.37,2013-04-14 12:06:00,
2013-04-14 08:11:00,46.1,36.5,29.99,West,264,5.8,5.8,69,0.00,CLR,,0.00,WeatherDisplay:10.37,2013-04-14 12:11:00,
2013-04-14 08:16:00,46.7,36.7,29.99,WNW,289,9.2,9.2,68,0.00,CLR,,0.00,WeatherDisplay:10.37,2013-04-14 12:16:00,
2013-04-14 08:21:00,46.8,36.1,29.99,WNW,299,8.1,8.1,66,0.00,CLR,,0.00,WeatherDisplay:10.37,2013-04-14 12:21:00,
2013-04-14 08:26:00,47.2,37.2,29.99,NW,319,8.1,8.1,68,0.00,CLR,,0.00,WeatherDisplay:10.37,2013-04-14 12:26:00,
2013-04-14 08:31:00,46.7,36.7,29.99,WNW,284,9.2,9.2,68,0.00,CLR,,0.00,WeatherDisplay:10.37,2013-04-14 12:31:00,
2013-04-14 08:36:00,46.5,36.9,29.99,NW,316,9.2,9.2,69,0.00,CLR,,0.00,WeatherDisplay:10.37,2013-04-14 12:36:00,
2013-04-14 08:41:00,46.7,37.8,29.99,NW,320,6.1,6.1,71,0.00,CLR,,0.00,WeatherDisplay:10.37,2013-04-14 12:41:00,
2013-04-14 08:46:00,46.9,36.9,29.99,WNW,298,6.9,6.9,68,0.00,CLR,,0.00,WeatherDisplay:10.37,2013-04-14 12:46:00,
2013-04-14 08:51:00,46.9,37.3,29.99,NNW,333,6.9,6.9,69,0.00,CLR,,0.00,WeatherDisplay:10.37,2013-04-14 12:51:00,
2013-04-14 08:56:00,46.9,36.9,29.99,NW,311,4.6,4.6,68,0.00,CLR,,0.00,WeatherDisplay:10.37,2013-04-14 12:56:00,
2013-04-14 09:01:00,46.9,36.9,29.99,WSW,243,9.2,9.2,68,0.00,CLR,,0.00,WeatherDisplay:10.37,2013-04-14 13:01:00,
2013-04-14 09:06:00,46.7,36.4,29.99,South,185,5.8,5.8,67,0.00,BKN,,0.00,WeatherDisplay:10.37,2013-04-14 13:06:00,
2013-04-14 09:11:00,47.1,36.7,29.99,West,280,10.4,10.4,67,0.00,BKN,,0.00,WeatherDisplay:10.37,2013-04-14 13:11:00,
2013-04-14 09:16:00,47.8,35.8,29.99,West,268,13.8,13.8,63,0.00,BKN,,0.00,WeatherDisplay:10.37,2013-04-14 13:16:00,
2013-04-14 09:21:00,47.7,35.3,29.99,West,268,13.8,13.8,62,0.00,BKN,,0.00,WeatherDisplay:10.37,2013-04-14 13:21:00,
2013-04-14 09:26:00,47.7,35.3,29.99,WNW,301,9.2,9.2,62,0.00,BKN,,0.00,WeatherDisplay:10.37,2013-04-14 13:26:00,
2013-04-14 09:31:00,47.6,34.0,29.99,West,271,11.5,11.5,59,0.00,BKN,,0.00,WeatherDisplay:10.37,2013-04-14 13:31:00,
2013-04-14 09:36:00,47.8,33.8,30.00,West,272,12.7,12.7,58,0.00,BKN,,0.00,WeatherDisplay:10.37,2013-04-14 13:36:00,
2013-04-14 09:41:00,47.9,34.7,30.00,WNW,282,9.2,9.2,60,0.00,BKN,,0.00,WeatherDisplay:10.37,2013-04-14 13:41:00,
2013-04-14 09:46:00,48.3,32.9,29.99,WNW,282,19.6,19.6,55,0.00,BKN,,0.00,WeatherDisplay:10.37,2013-04-14 13:46:00,
2013-04-14 09:51:00,48.7,33.7,30.00,West,267,11.5,11.5,56,0.00,BKN,,0.00,WeatherDisplay:10.37,2013-04-14 13:51:00,
2013-04-14 09:56:00,49.3,33.8,30.00,West,272,15.0,15.0,55,0.00,BKN,,0.00,WeatherDisplay:10.37,2013-04-14 13:56:00,
2013-04-14 10:01:00,49.4,33.0,30.00,West,267,16.1,16.1,53,0.00,BKN,,0.00,WeatherDisplay:10.37,2013-04-14 14:01:00,
2013-04-14 10:06:00,49.8,33.8,30.00,WNW,282,13.8,13.8,54,0.00,OVC,,0.00,WeatherDisplay:10.37,2013-04-14 14:06:00,
2013-04-14 10:11:00,50.1,32.7,30.00,WSW,254,16.1,16.1,51,0.00,OVC,,0.00,WeatherDisplay:10.37,2013-04-14 14:11:00,
2013-04-14 10:16:00,50.2,33.8,30.00,West,267,11.5,11.5,53,0.00,OVC,,0.00,WeatherDisplay:10.37,2013-04-14 14:16:00,
2013-04-14 10:21:00,50.2,34.2,30.00,West,281,6.9,6.9,54,0.00,OVC,,0.00,WeatherDisplay:10.37,2013-04-14 14:21:00,
2013-04-14 10:26:00,49.8,33.4,29.99,SSW,209,2.3,2.3,53,0.00,OVC,,0.00,WeatherDisplay:10.37,2013-04-14 14:26:00,
2013-04-14 10:31:00,49.0,33.1,30.00,West,275,10.4,10.4,54,0.00,OVC,,0.00,WeatherDisplay:10.37,2013-04-14 14:31:00,
2013-04-14 10:36:00,48.4,31.1,29.99,WNW,284,16.1,16.1,51,0.00,OVC,,0.00,WeatherDisplay:10.37,2013-04-14 14:36:00,
2013-04-14 10:41:00,47.9,30.2,30.00,West,281,16.1,16.1,50,0.00,OVC,,0.00,WeatherDisplay:10.37,2013-04-14 14:41:00,
2013-04-14 10:46:00,48.0,29.8,30.00,WSW,244,10.4,10.4,49,0.00,OVC,,0.00,WeatherDisplay:10.37,2013-04-14 14:46:00,
2013-04-14 10:51:00,48.0,29.8,30.00,NNW,329,11.5,11.5,49,0.00,OVC,,0.00,WeatherDisplay:10.37,2013-04-14 14:51:00,
2013-04-14 10:56:00,47.8,29.6,30.00,West,280,11.5,11.5,49,0.00,OVC,,0.00,WeatherDisplay:10.37,2013-04-14 14:56:00,
2013-04-14 11:01:00,48.0,29.8,30.00,WNW,298,11.5,11.5,49,0.00,OVC,,0.00,WeatherDisplay:10.37,2013-04-14 15:01:00,
2013-04-14 11:06:00,48.0,30.3,30.00,WNW,289,10.4,10.4,50,0.00,FEW,,0.00,WeatherDisplay:10.37,2013-04-14 15:06:00,
2013-04-14 11:11:00,48.0,29.3,30.00,North,357,9.2,9.2,48,0.00,FEW,,0.00,WeatherDisplay:10.37,2013-04-14 15:11:00,
2013-04-14 11:16:00,48.1,29.4,30.01,NNW,344,11.5,11.5,48,0.00,FEW,,0.00,WeatherDisplay:10.37,2013-04-14 15:16:00,
2013-04-14 11:21:00,48.1,28.8,30.01,NW,312,11.5,11.5,47,0.00,FEW,,0.00,WeatherDisplay:10.37,2013-04-14 15:21:00,
2013-04-14 11:26:00,47.9,30.2,30.00,NNW,333,8.1,8.1,50,0.00,FEW,,0.00,WeatherDisplay:10.37,2013-04-14 15:26:00,
2013-04-14 11:31:00,48.0,30.3,30.01,NNW,335,11.5,11.5,50,0.00,FEW,,0.00,WeatherDisplay:10.37,2013-04-14 15:31:00,
2013-04-14 11:36:00,48.0,29.3,30.01,NNW,336,18.4,18.4,48,0.00,FEW,,0.00,WeatherDisplay:10.37,2013-04-14 15:36:00,
2013-04-14 11:41:00,47.9,28.7,30.01,West,270,25.3,25.3,47,0.00,FEW,,0.00,WeatherDisplay:10.37,2013-04-14 15:41:00,
2013-04-14 11:46:00,48.0,29.8,30.01,WSW,247,8.1,8.1,49,0.00,FEW,,0.00,WeatherDisplay:10.37,2013-04-14 15:46:00,
2013-04-14 11:51:00,48.1,30.4,30.01,West,263,4.6,4.6,50,0.00,FEW,,0.00,WeatherDisplay:10.37,2013-04-14 15:51:00,
2013-04-14 11:56:00,48.0,29.3,30.01,WSW,251,12.7,12.7,48,0.00,FEW,,0.00,WeatherDisplay:10.37,2013-04-14 15:56:00,
2013-04-14 12:01:00,48.3,29.5,30.02,WNW,299,9.2,9.2,48,0.00,FEW,,0.00,WeatherDisplay:10.37,2013-04-14 16:01:00,
2013-04-14 12:06:00,48.7,30.9,30.01,North,11,8.1,8.1,50,0.00,BKN,,0.00,WeatherDisplay:10.37,2013-04-14 16:06:00,
2013-04-14 12:11:00,48.6,28.8,30.02,North,360,9.2,9.2,46,0.00,BKN,,0.00,WeatherDisplay:10.37,2013-04-14 16:11:00,
2013-04-14 12:17:00,48.5,29.2,30.02,West,270,12.4,12.4,47,0.00,BKN,,0.00,WeatherDisplay:10.37,2013-04-14 16:17:00,
2013-04-14 12:22:00,48.3,29.5,30.02,West,274,11.5,11.5,48,0.00,BKN,,0.00,WeatherDisplay:10.37,2013-04-14 16:22:00,
2013-04-14 12:27:00,49.0,28.6,30.02,North,11,10.4,10.4,45,0.00,BKN,,0.00,WeatherDisplay:10.37,2013-04-14 16:27:00,
2013-04-14 12:32:00,49.2,29.3,30.01,WNW,292,11.5,11.5,46,0.00,BKN,,0.00,WeatherDisplay:10.37,2013-04-14 16:32:00,
2013-04-14 12:37:00,49.1,28.7,30.01,WSW,246,20.7,20.7,45,0.00,BKN,,0.00,WeatherDisplay:10.37,2013-04-14 16:37:00,
2013-04-14 12:43:00,49.3,28.9,30.01,WNW,301,12.7,12.7,45,0.00,BKN,,0.00,WeatherDisplay:10.37,2013-04-14 16:43:00,
2013-04-14 12:48:00,49.5,29.6,30.01,NW,316,4.6,0.0,46,0.00,BKN,,0.00,WeatherDisplay:10.37,2013-04-14 16:48:00,
2013-04-14 12:54:00,50.0,29.0,30.01,West,278,10.4,10.4,44,0.00,BKN,,0.00,WeatherDisplay:10.37,2013-04-14 16:54:00,
2013-04-14 12:59:00,50.2,29.1,30.01,NW,323,13.8,13.8,44,0.00,BKN,,0.00,WeatherDisplay:10.37,2013-04-14 16:59:00,
2013-04-14 13:04:00,50.5,29.4,30.00,WNW,302,13.8,13.8,44,0.00,BKN,,0.00,WeatherDisplay:10.37,2013-04-14 17:04:00,
2013-04-14 13:09:00,51.1,30.0,30.01,WNW,299,11.5,11.5,44,0.00,BKN,,0.00,WeatherDisplay:10.37,2013-04-14 17:09:00,
2013-04-14 13:14:00,51.4,28.5,30.01,WNW,292,12.7,12.7,41,0.00,BKN,,0.00,WeatherDisplay:10.37,2013-04-14 17:14:00,
2013-04-14 13:19:00,51.2,29.5,30.00,WNW,285,8.8,8.8,43,0.00,BKN,,0.00,WeatherDisplay:10.37,2013-04-14 17:19:00,
2013-04-14 13:24:00,50.7,28.5,30.00,WNW,301,12.7,12.7,42,0.00,BKN,,0.00,WeatherDisplay:10.37,2013-04-14 17:24:00,
2013-04-14 13:29:00,50.9,30.3,30.01,South,186,1.2,1.2,45,0.00,BKN,,0.00,WeatherDisplay:10.37,2013-04-14 17:29:00,
2013-04-14 13:34:00,51.0,28.1,30.01,NW,304,9.2,9.2,41,0.00,BKN,,0.00,WeatherDisplay:10.37,2013-04-14 17:34:00,
2013-04-14 13:39:00,50.5,29.4,30.00,West,271,10.4,10.4,44,0.00,BKN,,0.00,WeatherDisplay:10.37,2013-04-14 17:39:00,
2013-04-14 13:45:00,50.7,29.0,30.01,WSW,250,12.4,12.4,43,0.00,BKN,,0.00,WeatherDisplay:10.37,2013-04-14 17:45:00,
2013-04-14 13:50:00,51.0,28.7,30.01,NNW,337,13.8,13.8,42,0.00,BKN,,0.00,WeatherDisplay:10.37,2013-04-14 17:50:00,
2013-04-14 13:55:00,51.6,31.5,30.01,West,274,10.4,10.4,46,0.00,BKN,,0.00,WeatherDisplay:10.37,2013-04-14 17:55:00,
2013-04-14 14:00:00,51.3,28.4,30.01,West,274,19.6,19.6,41,0.00,BKN,,0.00,WeatherDisplay:10.37,2013-04-14 18:00:00,
2013-04-14 14:05:00,50.9,30.9,30.01,West,265,9.2,9.2,46,0.00,BKN,,0.00,WeatherDisplay:10.37,2013-04-14 18:05:00,
2013-04-14 14:10:00,51.0,29.3,30.01,NNW,336,11.5,11.5,43,0.00,BKN,,0.00,WeatherDisplay:10.37,2013-04-14 18:10:00,
2013-04-14 14:15:00,51.6,29.3,30.01,North,360,15.0,15.0,42,0.00,BKN,,0.00,WeatherDisplay:10.37,2013-04-14 18:15:00,
2013-04-14 14:20:00,50.8,28.5,30.01,WNW,282,13.8,13.8,42,0.00,BKN,,0.00,WeatherDisplay:10.37,2013-04-14 18:20:00,
2013-04-14 14:25:00,50.2,28.6,30.02,WSW,241,11.5,11.5,43,0.00,BKN,,0.00,WeatherDisplay:10.37,2013-04-14 18:25:00,
2013-04-14 14:30:00,50.3,29.2,30.02,West,271,13.8,13.8,44,0.00,BKN,,0.00,WeatherDisplay:10.37,2013-04-14 18:30:00,
2013-04-14 14:35:00,50.2,29.1,30.02,NNW,342,11.5,11.5,44,0.00,BKN,,0.00,WeatherDisplay:10.37,2013-04-14 18:35:00,
2013-04-14 14:40:00,50.0,29.5,30.02,WNW,285,10.4,10.4,45,0.00,BKN,,0.00,WeatherDisplay:10.37,2013-04-14 18:40:00,
2013-04-14 14:45:00,51.0,28.7,30.03,WNW,295,15.0,15.0,42,0.00,BKN,,0.00,WeatherDisplay:10.37,2013-04-14 18:45:00,
2013-04-14 14:50:00,51.2,28.9,30.03,West,280,14.2,14.2,42,0.00,BKN,,0.00,WeatherDisplay:10.37,2013-04-14 18:50:00,
2013-04-14 14:55:00,50.8,30.2,30.03,West,270,9.2,9.2,45,0.00,BKN,,0.00,WeatherDisplay:10.37,2013-04-14 18:55:00,
2013-04-14 15:01:00,51.3,29.6,30.03,NNW,328,16.1,16.1,43,0.00,BKN,,0.00,WeatherDisplay:10.37,2013-04-14 19:01:00,
2013-04-14 15:06:00,50.8,28.0,30.03,NW,316,12.7,12.7,41,0.00,OVC,,0.00,WeatherDisplay:10.37,2013-04-14 19:06:00,
2013-04-14 15:11:00,50.7,29.6,30.03,NW,320,11.5,11.5,44,0.00,OVC,,0.00,WeatherDisplay:10.37,2013-04-14 19:11:00,
2013-04-14 15:16:00,50.6,30.6,30.03,NW,312,13.8,13.8,46,0.00,OVC,,0.00,WeatherDisplay:10.37,2013-04-14 19:16:00,
2013-04-14 15:22:00,50.0,29.0,30.03,North,356,12.7,12.7,44,0.00,OVC,,0.00,WeatherDisplay:10.37,2013-04-14 19:22:00,
2013-04-14 15:27:00,50.4,29.3,30.03,NW,322,18.4,18.4,44,0.00,OVC,,0.00,WeatherDisplay:10.37,2013-04-14 19:27:00,
2013-04-14 15:32:00,50.6,28.4,30.03,North,349,9.2,9.2,42,0.00,OVC,,0.00,WeatherDisplay:10.37,2013-04-14 19:32:00,
2013-04-14 15:37:00,50.8,28.5,30.03,NW,308,10.4,10.4,42,0.00,OVC,,0.00,WeatherDisplay:10.37,2013-04-14 19:37:00,
2013-04-14 15:42:00,51.1,28.8,30.03,NW,313,17.3,17.3,42,0.00,OVC,,0.00,WeatherDisplay:10.37,2013-04-14 19:42:00,
2013-04-14 15:47:00,50.5,28.8,30.03,NW,326,13.4,13.4,43,0.00,OVC,,0.00,WeatherDisplay:10.37,2013-04-14 19:47:00,
2013-04-14 15:52:00,50.0,28.4,30.03,NNW,347,16.1,16.1,43,0.00,OVC,,0.00,WeatherDisplay:10.37,2013-04-14 19:52:00,
2013-04-14 15:57:00,49.8,28.2,30.04,NNW,340,10.4,10.4,43,0.00,OVC,,0.00,WeatherDisplay:10.37,2013-04-14 19:57:00,
2013-04-14 16:02:00,50.1,30.1,30.03,NNW,347,8.1,8.1,46,0.00,SCT,,0.00,WeatherDisplay:10.37,2013-04-14 20:02:00,
2013-04-14 16:08:00,50.1,28.5,30.04,WSW,257,12.7,12.7,43,0.00,SCT,,0.00,WeatherDisplay:10.37,2013-04-14 20:08:00,
2013-04-14 16:13:00,50.5,29.4,30.04,NW,318,13.8,13.8,44,0.00,SCT,,0.00,WeatherDisplay:10.37,2013-04-14 20:13:00,
2013-04-14 16:18:00,51.2,30.0,30.04,NW,320,13.8,13.8,44,0.00,SCT,,0.00,WeatherDisplay:10.37,2013-04-14 20:18:00,
2013-04-14 16:23:00,51.2,28.3,30.04,NNW,340,13.8,13.8,41,0.00,SCT,,0.00,WeatherDisplay:10.37,2013-04-14 20:23:00,
2013-04-14 16:28:00,51.5,28.6,30.04,NNW,337,10.4,10.4,41,0.00,SCT,,0.00,WeatherDisplay:10.37,2013-04-14 20:28:00,
2013-04-14 16:33:00,50.8,28.0,30.04,NNW,328,16.1,16.1,41,0.00,SCT,,0.00,WeatherDisplay:10.37,2013-04-14 20:33:00,
2013-04-14 16:39:00,50.2,28.0,30.05,WNW,296,17.3,17.3,42,0.00,SCT,,0.00,WeatherDisplay:10.37,2013-04-14 20:39:00,
2013-04-14 16:44:00,49.8,28.8,30.06,NW,323,8.1,8.1,44,0.00,SCT,,0.00,WeatherDisplay:10.37,2013-04-14 20:44:00,
2013-04-14 16:50:00,49.6,28.6,30.06,NW,304,10.4,10.4,44,0.00,SCT,,0.00,WeatherDisplay:10.37,2013-04-14 20:50:00,
2013-04-14 16:55:00,50.0,29.0,30.06,WNW,282,15.0,15.0,44,0.00,SCT,,0.00,WeatherDisplay:10.37,2013-04-14 20:55:00,
2013-04-14 17:00:00,50.1,28.5,30.06,WNW,302,11.5,11.5,43,0.00,SCT,,0.00,WeatherDisplay:10.37,2013-04-14 21:00:00,
2013-04-14 17:05:00,49.7,28.1,30.07,NW,311,4.6,4.6,43,0.00,FEW,,0.00,WeatherDisplay:10.37,2013-04-14 21:05:00,
2013-04-14 17:11:00,50.0,28.4,30.07,NNW,335,8.1,8.1,43,0.00,FEW,,0.00,WeatherDisplay:10.37,2013-04-14 21:11:00,
2013-04-14 17:16:00,49.7,28.1,30.08,WNW,291,8.1,8.1,43,0.00,FEW,,0.00,WeatherDisplay:10.37,2013-04-14 21:16:00,
2013-04-14 17:21:00,50.0,28.4,30.08,West,281,10.4,10.4,43,0.00,FEW,,0.00,WeatherDisplay:10.37,2013-04-14 21:21:00,
2013-04-14 17:27:00,49.9,27.7,30.08,WNW,298,12.7,12.7,42,0.00,FEW,,0.00,WeatherDisplay:10.37,2013-04-14 21:27:00,
2013-04-14 17:32:00,50.0,29.0,30.08,North,4,6.9,6.9,44,0.00,FEW,,0.00,WeatherDisplay:10.37,2013-04-14 21:32:00,
2013-04-14 17:37:00,49.6,28.0,30.08,NNW,346,12.7,12.7,43,0.00,FEW,,0.00,WeatherDisplay:10.37,2013-04-14 21:37:00,
2013-04-14 17:42:00,49.5,27.9,30.08,NNW,340,11.5,11.5,43,0.00,FEW,,0.00,WeatherDisplay:10.37,2013-04-14 21:42:00,
2013-04-14 17:47:00,49.7,28.1,30.08,NNW,337,11.5,11.5,43,0.00,FEW,,0.00,WeatherDisplay:10.37,2013-04-14 21:47:00,
2013-04-14 17:52:00,49.6,28.0,30.08,WNW,301,12.7,12.7,43,0.00,FEW,,0.00,WeatherDisplay:10.37,2013-04-14 21:52:00,
2013-04-14 17:57:00,49.5,27.4,30.08,NW,311,12.7,12.7,42,0.00,FEW,,0.00,WeatherDisplay:10.37,2013-04-14 21:57:00,
2013-04-14 18:02:00,49.7,28.7,30.09,West,265,3.5,0.0,44,0.00,CLR,,0.00,WeatherDisplay:10.37,2013-04-14 22:02:00,
2013-04-14 18:09:00,49.6,29.1,30.09,NW,304,5.8,5.8,45,0.00,CLR,,0.00,WeatherDisplay:10.37,2013-04-14 22:09:00,
2013-04-14 18:15:00,49.4,28.4,30.09,ENE,73,4.6,4.6,44,0.00,CLR,,0.00,WeatherDisplay:10.37,2013-04-14 22:15:00,
2013-04-14 18:20:00,49.2,28.2,30.09,NNE,24,4.6,4.6,44,0.00,CLR,,0.00,WeatherDisplay:10.37,2013-04-14 22:20:00,
2013-04-14 18:25:00,48.9,28.5,30.10,WNW,296,2.3,2.3,45,0.00,CLR,,0.00,WeatherDisplay:10.37,2013-04-14 22:25:00,
2013-04-14 18:30:00,48.5,27.6,30.10,NW,326,10.4,10.4,44,0.00,CLR,,0.00,WeatherDisplay:10.37,2013-04-14 22:30:00,
2013-04-14 18:35:00,48.3,28.0,30.11,NE,54,4.6,4.6,45,0.00,CLR,,0.00,WeatherDisplay:10.37,2013-04-14 22:35:00,
2013-04-14 18:40:00,47.9,28.1,30.11,North,360,11.5,11.5,46,0.00,CLR,,0.00,WeatherDisplay:10.37,2013-04-14 22:40:00,
2013-04-14 18:45:00,48.0,28.2,30.11,NE,35,0.0,0.0,46,0.00,CLR,,0.00,WeatherDisplay:10.37,2013-04-14 22:45:00,
2013-04-14 18:50:00,47.7,27.9,30.11,ENE,68,6.9,6.9,46,0.00,CLR,,0.00,WeatherDisplay:10.37,2013-04-14 22:50:00,
2013-04-14 18:55:00,47.7,28.5,30.11,NE,52,0.0,0.0,47,0.00,CLR,,0.00,WeatherDisplay:10.37,2013-04-14 22:55:00,
2013-04-14 19:00:00,47.6,28.4,30.12,NW,315,0.0,0.0,47,0.00,CLR,,0.00,WeatherDisplay:10.37,2013-04-14 23:00:00,
2013-04-14 19:05:00,47.0,27.8,30.12,NE,35,6.9,6.9,47,0.00,CLR,,0.00,WeatherDisplay:10.37,2013-04-14 23:05:00,
2013-04-14 19:12:00,46.7,28.1,30.13,ENE,65,5.8,5.8,48,0.00,CLR,,0.00,WeatherDisplay:10.37,2013-04-14 23:12:00,
2013-04-14 19:17:00,46.5,27.9,30.13,ENE,58,0.0,0.0,48,0.00,CLR,,0.00,WeatherDisplay:10.37,2013-04-14 23:17:00,
2013-04-14 19:22:00,46.3,28.2,30.14,NNE,16,2.3,2.3,49,0.00,CLR,,0.00,WeatherDisplay:10.37,2013-04-14 23:22:00,
2013-04-14 19:27:00,46.0,27.9,30.14,NE,42,4.6,4.6,49,0.00,CLR,,0.00,WeatherDisplay:10.37,2013-04-14 23:27:00,
2013-04-14 19:33:00,45.8,27.7,30.14,NE,54,4.6,4.6,49,0.00,CLR,,0.00,WeatherDisplay:10.37,2013-04-14 23:33:00,
2013-04-14 19:38:00,45.7,28.1,30.15,NNE,31,3.5,3.5,50,0.00,CLR,,0.00,WeatherDisplay:10.37,2013-04-14 23:38:00,
2013-04-14 19:43:00,45.4,27.9,30.15,NNE,30,0.0,0.0,50,0.00,CLR,,0.00,WeatherDisplay:10.37,2013-04-14 23:43:00,
2013-04-14 19:48:00,45.2,27.7,30.16,NE,49,0.0,0.0,50,0.00,CLR,,0.00,WeatherDisplay:10.37,2013-04-14 23:48:00,
2013-04-14 19:53:00,45.2,28.2,30.16,North,11,1.2,0.0,51,0.00,CLR,,0.00,WeatherDisplay:10.37,2013-04-14 23:53:00,
2013-04-14 19:59:00,44.7,27.7,30.17,North,352,2.3,0.0,51,0.00,CLR,,0.00,WeatherDisplay:10.37,2013-04-14 23:59:00,
2013-04-14 20:04:00,44.5,27.5,30.17,North,352,0.0,0.0,51,0.00,CLR,,0.00,WeatherDisplay:10.37,2013-04-15 00:04:00,
2013-04-14 20:09:00,44.5,27.5,30.17,North,352,0.0,0.0,51,0.00,CLR,,0.00,WeatherDisplay:10.37,2013-04-15 00:09:00,
2013-04-14 20:14:00,44.5,27.5,30.17,North,352,0.0,0.0,51,0.00,CLR,,0.00,WeatherDisplay:10.37,2013-04-15 00:14:00,
2013-04-14 20:19:00,44.4,27.9,30.17,ENE,62,4.8,4.8,52,0.00,CLR,,0.00,WeatherDisplay:10.37,2013-04-15 00:19:00,
2013-04-14 20:24:00,44.1,27.1,30.18,North,1,0.0,0.0,51,0.00,CLR,,0.00,WeatherDisplay:10.37,2013-04-15 00:24:00,
2013-04-14 20:30:00,44.1,27.6,30.18,ENE,62,3.5,3.5,52,0.00,CLR,,0.00,WeatherDisplay:10.37,2013-04-15 00:30:00,
2013-04-14 20:35:00,44.0,27.1,30.18,NE,48,0.0,0.8,51,0.00,CLR,,0.00,WeatherDisplay:10.37,2013-04-15 00:35:00,
2013-04-14 20:40:00,43.9,27.0,30.19,NNW,336,0.0,0.0,51,0.00,CLR,,0.00,WeatherDisplay:10.37,2013-04-15 00:40:00,
2013-04-14 20:45:00,43.9,27.0,30.19,NNW,336,0.0,0.0,51,0.00,CLR,,0.00,WeatherDisplay:10.37,2013-04-15 00:45:00,
2013-04-14 20:50:00,44.0,27.1,30.19,NNW,336,0.0,0.0,51,0.00,CLR,,0.00,WeatherDisplay:10.37,2013-04-15 00:50:00,
2013-04-14 20:55:00,43.9,27.0,30.19,NNW,346,0.0,0.0,51,0.00,CLR,,0.00,WeatherDisplay:10.37,2013-04-15 00:55:00,
2013-04-14 21:00:00,44.0,27.1,30.19,NNW,347,0.0,0.0,51,0.00,CLR,,0.00,WeatherDisplay:10.37,2013-04-15 01:00:00,
2013-04-14 21:05:00,43.7,27.2,30.19,NNW,347,0.0,0.0,52,0.00,CLR,,0.00,WeatherDisplay:10.37,2013-04-15 01:05:00,
2013-04-14 21:11:00,43.7,27.2,30.19,NNW,347,0.0,0.0,52,0.00,CLR,,0.00,WeatherDisplay:10.37,2013-04-15 01:11:00,
2013-04-14 21:16:00,43.3,26.9,30.20,NNW,347,0.0,0.0,52,0.00,CLR,,0.00,WeatherDisplay:10.37,2013-04-15 01:16:00,
2013-04-14 21:22:00,42.9,27.4,30.20,NNW,347,0.0,0.0,54,0.00,CLR,,0.00,WeatherDisplay:10.37,2013-04-15 01:22:00,
2013-04-14 21:27:00,43.0,27.5,30.20,NNW,347,0.0,0.0,54,0.00,CLR,,0.00,WeatherDisplay:10.37,2013-04-15 01:27:00,
2013-04-14 21:32:00,42.6,27.6,30.21,NNW,347,0.0,0.0,55,0.00,CLR,,0.00,WeatherDisplay:10.37,2013-04-15 01:32:00,
2013-04-14 21:37:00,42.3,27.3,30.21,NNW,347,0.0,0.0,55,0.00,CLR,,0.00,WeatherDisplay:10.37,2013-04-15 01:37:00,
2013-04-14 21:42:00,42.1,27.6,30.20,NNW,347,0.0,0.0,56,0.00,CLR,,0.00,WeatherDisplay:10.37,2013-04-15 01:42:00,
2013-04-14 21:47:00,41.8,27.3,30.20,ENE,64,0.0,0.0,56,0.00,CLR,,0.00,WeatherDisplay:10.37,2013-04-15 01:47:00,
2013-04-14 21:52:00,42.0,27.5,30.20,ENE,64,0.0,0.0,56,0.00,CLR,,0.00,WeatherDisplay:10.37,2013-04-15 01:52:00,
2013-04-14 21:57:00,41.8,27.7,30.21,ENE,64,0.0,0.0,57,0.00,CLR,,0.00,WeatherDisplay:10.37,2013-04-15 01:57:00,
2013-04-14 22:03:00,41.5,27.4,30.21,ENE,64,0.0,0.0,57,0.00,CLR,,0.00,WeatherDisplay:10.37,2013-04-15 02:03:00,
2013-04-14 22:08:00,41.4,27.3,30.21,ENE,64,0.0,0.0,57,0.00,CLR,,0.00,WeatherDisplay:10.37,2013-04-15 02:08:00,
2013-04-14 22:13:00,41.0,27.4,30.21,ENE,64,0.0,0.0,58,0.00,CLR,,0.00,WeatherDisplay:10.37,2013-04-15 02:13:00,
2013-04-14 22:18:00,40.8,27.6,30.21,ENE,64,0.0,0.0,59,0.00,CLR,,0.00,WeatherDisplay:10.37,2013-04-15 02:18:00,
2013-04-14 22:23:00,40.4,27.2,30.21,ENE,64,0.0,0.0,59,0.00,CLR,,0.00,WeatherDisplay:10.37,2013-04-15 02:23:00,
2013-04-14 22:28:00,40.4,27.2,30.21,ENE,64,0.0,0.0,59,0.00,CLR,,0.00,WeatherDisplay:10.37,2013-04-15 02:28:00,
2013-04-14 22:33:00,40.2,27.4,30.22,ENE,64,0.0,0.0,60,0.00,CLR,,0.00,WeatherDisplay:10.37,2013-04-15 02:33:00,
2013-04-14 22:38:00,40.2,27.4,30.22,ENE,64,0.0,0.0,60,0.00,CLR,,0.00,WeatherDisplay:10.37,2013-04-15 02:38:00,
2013-04-14 22:43:00,39.9,27.6,30.22,ENE,64,0.0,0.0,61,0.00,CLR,,0.00,WeatherDisplay:10.37,2013-04-15 02:43:00,
2013-04-14 22:48:00,39.8,27.1,30.22,ENE,64,0.0,0.0,60,0.00,CLR,,0.00,WeatherDisplay:10.37,2013-04-15 02:48:00,
2013-04-14 22:53:00,39.8,27.1,30.22,ENE,64,0.0,0.0,60,0.00,CLR,,0.00,WeatherDisplay:10.37,2013-04-15 02:53:00,
2013-04-14 22:58:00,39.6,27.7,30.22,ENE,64,0.0,0.0,62,0.00,CLR,,0.00,WeatherDisplay:10.37,2013-04-15 02:58:00,
2013-04-14 23:03:00,39.6,27.7,30.22,ENE,64,0.0,0.0,62,0.00,CLR,,0.00,WeatherDisplay:10.37,2013-04-15 03:03:00,
2013-04-14 23:09:00,39.6,27.3,30.22,ENE,64,0.0,0.0,61,0.00,CLR,,0.00,WeatherDisplay:10.37,2013-04-15 03:09:00,
2013-04-14 23:14:00,39.7,27.8,30.22,ENE,64,0.0,0.0,62,0.00,CLR,,0.00,WeatherDisplay:10.37,2013-04-15 03:14:00,
2013-04-14 23:19:00,39.6,27.3,30.22,ENE,64,0.0,0.0,61,0.00,CLR,,0.00,WeatherDisplay:10.37,2013-04-15 03:19:00,
2013-04-14 23:24:00,39.6,27.7,30.22,ENE,64,0.0,0.0,62,0.00,CLR,,0.00,WeatherDisplay:10.37,2013-04-15 03:24:00,
2013-04-14 23:29:00,39.4,27.9,30.22,ENE,64,0.0,0.0,63,0.00,CLR,,0.00,WeatherDisplay:10.37,2013-04-15 03:29:00,
2013-04-14 23:34:00,39.4,27.5,30.22,ENE,64,0.0,0.0,62,0.00,CLR,,0.00,WeatherDisplay:10.37,2013-04-15 03:34:00,
2013-04-14 23:39:00,39.2,27.3,30.22,ENE,64,0.0,0.0,62,0.00,CLR,,0.00,WeatherDisplay:10.37,2013-04-15 03:39:00,
2013-04-14 23:44:00,39.3,27.8,30.22,ENE,64,0.0,0.0,63,0.00,CLR,,0.00,WeatherDisplay:10.37,2013-04-15 03:44:00,
2013-04-14 23:49:00,39.3,27.8,30.22,ENE,64,0.0,0.0,63,0.00,CLR,,0.00,WeatherDisplay:10.37,2013-04-15 03:49:00,
2013-04-14 23:56:00,39.0,27.5,30.22,ENE,64,0.0,0.0,63,0.00,CLR,,0.00,WeatherDisplay:10.37,2013-04-15 03:56:00,